Location: Biltmore Gardens
(41.6070°N, 83.4666°W)
Time: 14:17:35
(UTC+00:00)

Cosmos 1153 Rocket - Pass Details

Date: 14 July 2020
Orbit: 953 x 1007 km, 82.9° (Epoch: 04 August)

Event Time Altitude Azimuth Distance (km) Brightness Sun altitude
Exits shadow 06:31:30 63° 192° (SSW) 1,074 4.4 -25.7°
Maximum altitude 06:32:37 87° 275° (W) 971 4.4 -25.6°
Drops below altitude 10° 06:38:48 10° 7° (N) 2,697 7.8 -25.3°
Sets 06:41:18 0° 8° (N) 3,643 8.8 -25.2°
